Location: Montclair
(37.8322°N, 122.2092°W)
Time: 22:35:28
(UTC+00:00)

Cosmos 1867 - Pass Details

Date: 13 December 2024
Orbit: 773 x 801 km, 65.0° (Epoch: 19 January)

Event Time Altitude Azimuth Distance (km) Brightness Sun altitude
Exits shadow 11:29:57 13° 70° (ENE) 2,178 6.4 -43.8°
Drops below altitude 10° 11:30:42 10° 63° (ENE) 2,369 6.6 -43.6°
Sets 11:33:45 0° 47° (NE) 3,307 7.3 -43.0°
